Location: Foligno
(42.9600°N, 12.7050°E)
Time: 10:01:26
(UTC+02:00)

ISS - Pass Details

Date: 15 July 2018
Orbit: 402 x 408 km, 51.6° (Epoch: 19 July)

Event Time Altitude Azimuth Distance (km) Brightness Sun altitude
Exits shadow 01:49:50 30° 358° (N) 750 -1.9 -25.0°
Drops below altitude 10° 01:52:20 10° 44° (NE) 1,470 -0.3 -24.9°
Sets 01:54:34 0° 55° (NE) 2,334 0.7 -24.8°
